Вернуться в каталог

STARLINK-31780

АктивенСвязьVLEO
NORAD 59432·PAYLOAD·🇺🇸 United States

Запущен Apr 7, 2024 с Vandenberg Space Force Base

Loading…

Ближайшие Пролёты (ближайшие 24 часа)

TLE

СвежийSource: CelesTrak SupGP

Эпоха: Sep 14, 2026, 21:32 UTC

1 59432C 24065M   26257.89770833 -.00071959  00000+0 -21262-2 0  2571
2 59432  53.1566 119.5935 0001267  88.0525 268.9045 15.34424331    13

Отслеживайте STARLINK-31780 в реальном времени с AllMySat

Download on the App Store